| time (UTC) | temp F | wind direction | speed MPH | gust MPH | rain 1hr in | rain 24hr in | rain mn in | humidity % | barometer mb |
| 20260508010057 | 78 | 187 | 0.0 | 0.0 | 0.00 | 0.00 | 0.00 | 54 | 1004.7 |
| 20260508005603 | 78 | 214 | 0.0 | 0.0 | 0.00 | 0.00 | 0.00 | 54 | 1004.4 |
| 20260508004627 | 78 | 179 | 0.0 | 0.0 | 0.00 | 0.00 | 0.00 | 54 | 1004.5 |
| 20260508003100 | 78 | 206 | 0.0 | 0.0 | 0.00 | 0.00 | 0.00 | 54 | 1004.3 |
| 20260508002558 | 78 | 99 | 0.0 | 0.0 | 0.00 | 0.00 | 0.00 | 53 | 1004.6 |
| 20260508002055 | 78 | 209 | 0.0 | 0.0 | 0.00 | 0.00 | 0.00 | 53 | 1004.4 |
| 20260508001558 | 78 | 207 | 0.0 | 0.0 | 0.00 | 0.00 | 0.00 | 53 | 1004.5 |
| 20260508001105 | 78 | 180 | 0.0 | 0.0 | 0.00 | 0.00 | 0.00 | 53 | 1004.4 |
| 20260508000559 | 78 | 206 | 0.0 | 0.0 | 0.00 | 0.00 | 0.00 | 53 | 1004.3 |
| 20260507235056 | 78 | 206 | 0.0 | 0.0 | 0.00 | 0.00 | 0.00 | 53 | 1004.5 |
| 20260507234555 | 78 | 211 | 0.0 | 0.0 | 0.00 | 0.00 | 0.00 | 52 | 1004.2 |
| 20260507233555 | 78 | 246 | 0.0 | 0.0 | 0.00 | 0.00 | 0.00 | 52 | 1004.3 |
| 20260507233055 | 78 | 174 | 0.0 | 0.0 | 0.00 | 0.00 | 0.00 | 53 | 1004.1 |
| 20260507232600 | 78 | 212 | 0.0 | 0.0 | 0.00 | 0.00 | 0.00 | 53 | 1004.1 |
| 20260507231555 | 78 | 208 | 0.0 | 0.0 | 0.00 | 0.00 | 0.00 | 53 | 1004.3 |
| 20260507230600 | 78 | 220 | 0.0 | 0.0 | 0.00 | 0.00 | 0.00 | 55 | 1004.2 |
| 20260507225602 | 78 | 197 | 0.0 | 0.0 | 0.00 | 0.00 | 0.00 | 57 | 1004.1 |
| 20260507225100 | 78 | 153 | 0.0 | 0.0 | 0.00 | 0.00 | 0.00 | 55 | 1004.3 |
| 20260507224601 | 77 | 180 | 0.0 | 0.0 | 0.00 | 0.00 | 0.00 | 56 | 1004.7 |
| 20260507224059 | 78 | 171 | 0.0 | 0.0 | 0.00 | 0.00 | 0.00 | 56 | 1004.5 |
| 20260507223602 | 78 | 201 | 0.0 | 0.0 | 0.00 | 0.00 | 0.00 | 57 | 1004.6 |
| 20260507223102 | 78 | 215 | 0.0 | 0.0 | 0.00 | 0.00 | 0.00 | 56 | 1004.7 |
| 20260507222059 | 77 | 182 | 0.0 | 0.0 | 0.00 | 0.00 | 0.00 | 55 | 1004.7 |
| 20260507221602 | 77 | 164 | 0.0 | 0.0 | 0.00 | 0.00 | 0.00 | 56 | 1004.9 |
| 20260507221107 | 77 | 209 | 0.0 | 0.0 | 0.00 | 0.00 | 0.00 | 56 | 1004.8 |
| 20260507220559 | 77 | 231 | 0.0 | 0.0 | 0.00 | 0.00 | 0.00 | 59 | 1005.0 |
| 20260507220058 | 77 | 4 | 0.0 | 0.0 | 0.00 | 0.00 | 0.00 | 56 | 1005.1 |
| 20260507215102 | 77 | 192 | 0.0 | 0.0 | 0.00 | 0.00 | 0.00 | 57 | 1005.2 |
| 20260507214558 | 77 | 222 | 0.0 | 0.0 | 0.00 | 0.00 | 0.00 | 57 | 1005.4 |
| 20260507214058 | 77 | 197 | 0.0 | 0.0 | 0.00 | 0.00 | 0.00 | 60 | 1005.4 |
| 20260507213058 | 77 | 217 | 0.0 | 0.0 | 0.00 | 0.00 | 0.00 | 65 | 1005.5 |
| 20260507212558 | 77 | 214 | 0.0 | 0.0 | 0.00 | 0.00 | 0.00 | 63 | 1005.5 |
| 20260507212102 | 78 | 214 | 0.0 | 0.0 | 0.00 | 0.00 | 0.00 | 56 | 1005.6 |
| 20260507211558 | 77 | 230 | 0.0 | 0.0 | 0.00 | 0.00 | 0.00 | 56 | 1005.6 |
| 20260507211103 | 77 | 183 | 0.0 | 0.0 | 0.00 | 0.00 | 0.00 | 62 | 1005.8 |
| 20260507210558 | 77 | 174 | 0.0 | 0.0 | 0.00 | 0.00 | 0.00 | 57 | 1005.8 |
| 20260507210100 | 77 | 205 | 0.0 | 0.0 | 0.00 | 0.00 | 0.00 | 59 | 1005.7 |
| 20260507205559 | 77 | 216 | 0.0 | 0.0 | 0.00 | 0.00 | 0.00 | 66 | 1005.5 |
| 20260507205057 | 77 | 154 | 0.0 | 0.0 | 0.00 | 0.00 | 0.00 | 56 | 1005.7 |
| 20260507204057 | 78 | 159 | 0.0 | 0.0 | 0.00 | 0.00 | 0.00 | 58 | 1005.8 |
| 20260507203058 | 78 | 187 | 0.0 | 0.0 | 0.00 | 0.00 | 0.00 | 54 | 1005.8 |
| 20260507202558 | 79 | 266 | 0.0 | 0.0 | 0.00 | 0.00 | 0.00 | 58 | 1005.9 |
| 20260507202100 | 79 | 160 | 0.0 | 0.0 | 0.00 | 0.00 | 0.00 | 60 | 1005.7 |
| 20260507201558 | 79 | 159 | 0.0 | 0.0 | 0.00 | 0.00 | 0.00 | 56 | 1005.7 |
| 20260507201103 | 79 | 205 | 0.0 | 0.0 | 0.00 | 0.00 | 0.00 | 58 | 1005.7 |
| 20260507200558 | 79 | 192 | 0.0 | 0.0 | 0.00 | 0.00 | 0.00 | 55 | 1005.6 |
| 20260507195601 | 78 | 197 | 0.0 | 0.0 | 0.00 | 0.00 | 0.00 | 57 | 1005.5 |
| 20260507195059 | 77 | 197 | 0.0 | 0.0 | 0.00 | 0.00 | 0.00 | 58 | 1005.5 |
| 20260507194604 | 78 | 197 | 0.0 | 0.0 | 0.00 | 0.00 | 0.00 | 68 | 1005.3 |
| 20260507194058 | 78 | 197 | 0.0 | 0.0 | 0.00 | 0.00 | 0.00 | 63 | 1005.5 |
| 20260507193558 | 78 | 197 | 0.0 | 0.0 | 0.00 | 0.00 | 0.00 | 55 | 1005.4 |
| 20260507193058 | 77 | 222 | 0.0 | 0.0 | 0.00 | 0.00 | 0.00 | 58 | 1005.5 |
| 20260507192557 | 77 | 187 | 0.0 | 0.0 | 0.00 | 0.00 | 0.00 | 64 | 1005.7 |
| 20260507192101 | 77 | 141 | 0.0 | 0.0 | 0.00 | 0.00 | 0.00 | 69 | 1005.6 |
| 20260507191558 | 78 | 138 | 0.0 | 0.0 | 0.00 | 0.00 | 0.00 | 64 | 1005.8 |
| 20260507191105 | 78 | 218 | 0.0 | 0.0 | 0.00 | 0.00 | 0.00 | 65 | 1005.8 |
| 20260507190558 | 79 | 218 | 0.0 | 0.0 | 0.00 | 0.00 | 0.00 | 65 | 1005.8 |
| 20260507190058 | 79 | 222 | 0.0 | 0.0 | 0.00 | 0.00 | 0.00 | 59 | 1005.8 |
| 20260507185600 | 79 | 27 | 0.0 | 0.0 | 0.00 | 0.00 | 0.00 | 58 | 1005.7 |
| 20260507185058 | 80 | 201 | 0.0 | 0.0 | 0.00 | 0.00 | 0.00 | 53 | 1005.8 |
| 20260507184557 | 80 | 206 | 0.0 | 0.0 | 0.00 | 0.00 | 0.00 | 57 | 1005.9 |
| 20260507184058 | 79 | 171 | 0.0 | 0.0 | 0.00 | 0.00 | 0.00 | 53 | 1005.9 |
| 20260507183602 | 79 | 202 | 0.0 | 0.0 | 0.00 | 0.00 | 0.00 | 56 | 1005.9 |
| 20260507182559 | 80 | 208 | 0.0 | 0.0 | 0.00 | 0.00 | 0.00 | 60 | 1005.9 |
| 20260507182056 | 80 | 209 | 0.0 | 0.0 | 0.00 | 0.00 | 0.00 | 52 | 1006.0 |
| 20260507181558 | 80 | 174 | 0.0 | 0.0 | 0.00 | 0.00 | 0.00 | 52 | 1006.0 |
| 20260507181107 | 80 | 11 | 0.0 | 0.0 | 0.00 | 0.00 | 0.00 | 52 | 1005.9 |
| 20260507180057 | 80 | 183 | 0.0 | 0.0 | 0.00 | 0.00 | 0.00 | 53 | 1005.9 |
| 20260507175559 | 80 | 171 | 0.0 | 0.0 | 0.00 | 0.00 | 0.00 | 50 | 1005.9 |
| 20260507175101 | 80 | 237 | 0.0 | 0.0 | 0.00 | 0.00 | 0.00 | 51 | 1006.1 |
| 20260507174556 | 80 | 176 | 0.0 | 0.0 | 0.00 | 0.00 | 0.00 | 51 | 1005.9 |
| 20260507174058 | 80 | 187 | 0.0 | 0.0 | 0.00 | 0.00 | 0.00 | 53 | 1006.0 |
| 20260507173558 | 80 | 197 | 0.0 | 0.0 | 0.00 | 0.00 | 0.00 | 53 | 1005.9 |
| 20260507172558 | 81 | 197 | 0.0 | 0.0 | 0.00 | 0.00 | 0.00 | 53 | 1006.0 |
| 20260507172104 | 81 | 187 | 0.0 | 0.0 | 0.00 | 0.00 | 0.00 | 52 | 1006.3 |
| 20260507171558 | 81 | 210 | 0.0 | 0.0 | 0.00 | 0.00 | 0.00 | 55 | 1006.4 |
| 20260507171102 | 81 | 207 | 0.0 | 0.0 | 0.00 | 0.00 | 0.00 | 53 | 1006.4 |
| 20260507170603 | 81 | 197 | 0.0 | 0.0 | 0.00 | 0.00 | 0.00 | 55 | 1006.4 |
| 20260507170059 | 81 | 206 | 0.0 | 0.0 | 0.00 | 0.00 | 0.00 | 52 | 1006.6 |
| 20260507165559 | 81 | 187 | 0.0 | 0.0 | 0.00 | 0.00 | 0.00 | 54 | 1006.7 |
| 20260507165102 | 81 | 174 | 0.0 | 0.0 | 0.00 | 0.00 | 0.00 | 53 | 1006.8 |
| 20260507164600 | 81 | 213 | 0.0 | 0.0 | 0.00 | 0.00 | 0.00 | 52 | 1007.0 |
| 20260507164104 | 81 | 176 | 0.0 | 0.0 | 0.00 | 0.00 | 0.00 | 52 | 1007.0 |
| 20260507163558 | 82 | 201 | 0.0 | 0.0 | 0.00 | 0.00 | 0.00 | 50 | 1006.9 |
| 20260507163058 | 82 | 192 | 0.0 | 0.0 | 0.00 | 0.00 | 0.00 | 50 | 1006.8 |
| 20260507162558 | 82 | 207 | 0.0 | 0.0 | 0.00 | 0.00 | 0.00 | 51 | 1006.8 |
| 20260507162056 | 82 | 214 | 0.0 | 0.0 | 0.00 | 0.00 | 0.00 | 53 | 1006.9 |
| 20260507161603 | 81 | 222 | 0.0 | 0.0 | 0.00 | 0.00 | 0.00 | 51 | 1007.1 |
| 20260507161101 | 81 | 214 | 0.0 | 0.0 | 0.00 | 0.00 | 0.00 | 52 | 1007.1 |
| 20260507160601 | 81 | 145 | 0.0 | 0.0 | 0.00 | 0.00 | 0.00 | 51 | 1007.2 |
| 20260507160057 | 81 | 159 | 0.0 | 0.0 | 0.00 | 0.00 | 0.00 | 51 | 1007.2 |
| 20260507155601 | 81 | 209 | 0.0 | 0.0 | 0.00 | 0.00 | 0.00 | 52 | 1007.0 |
| 20260507155058 | 81 | 211 | 0.0 | 0.0 | 0.00 | 0.00 | 0.00 | 55 | 1007.2 |
| 20260507154556 | 81 | 187 | 0.0 | 0.0 | 0.00 | 0.00 | 0.00 | 54 | 1007.2 |
| 20260507154103 | 81 | 170 | 0.0 | 0.0 | 0.00 | 0.00 | 0.00 | 58 | 1007.3 |
| 20260507153600 | 80 | 197 | 0.0 | 0.0 | 0.00 | 0.00 | 0.00 | 57 | 1007.3 |
| 20260507152557 | 80 | 273 | 0.0 | 0.0 | 0.00 | 0.00 | 0.00 | 58 | 1007.6 |
| 20260507151558 | 79 | 205 | 0.0 | 0.0 | 0.00 | 0.00 | 0.00 | 60 | 1007.7 |
| 20260507151103 | 79 | 284 | 0.0 | 0.0 | 0.00 | 0.00 | 0.00 | 60 | 1007.8 |
| 20260507150603 | 79 | 207 | 0.0 | 0.0 | 0.00 | 0.00 | 0.00 | 61 | 1007.8 |
| 20260507150059 | 79 | 192 | 0.0 | 0.0 | 0.00 | 0.00 | 0.00 | 62 | 1007.9 |
| 20260507145611 | 78 | 236 | 0.0 | 0.0 | 0.00 | 0.00 | 0.00 | 63 | 1008.4 |
| 20260507144602 | 78 | 197 | 0.0 | 0.0 | 0.00 | 0.00 | 0.00 | 62 | 1008.5 |
| 20260507143559 | 78 | 192 | 0.0 | 0.0 | 0.00 | 0.00 | 0.00 | 62 | 1008.8 |
| 20260507143101 | 78 | 220 | 0.0 | 0.0 | 0.00 | 0.00 | 0.00 | 65 | 1009.0 |
| 20260507142058 | 77 | 197 | 0.0 | 0.0 | 0.00 | 0.00 | 0.00 | 63 | 1009.3 |
| 20260507140558 | 77 | 209 | 0.0 | 0.0 | 0.00 | 0.00 | 0.00 | 64 | 1009.8 |
| 20260507140059 | 77 | 205 | 0.0 | 0.0 | 0.00 | 0.00 | 0.00 | 66 | 1010.0 |
| 20260507135603 | 77 | 183 | 0.0 | 0.0 | 0.00 | 0.00 | 0.00 | 67 | 1010.2 |
| 20260507135059 | 77 | 197 | 0.0 | 0.0 | 0.00 | 0.00 | 0.00 | 65 | 1010.3 |
| 20260507134101 | 77 | 222 | 0.0 | 0.0 | 0.00 | 0.00 | 0.00 | 67 | 1010.5 |
| 20260507133601 | 76 | 178 | 0.0 | 0.0 | 0.00 | 0.00 | 0.00 | 68 | 1010.6 |
| 20260507133058 | 76 | 197 | 0.0 | 0.0 | 0.00 | 0.00 | 0.00 | 68 | 1010.8 |
| 20260507132559 | 76 | 162 | 0.0 | 0.0 | 0.00 | 0.00 | 0.00 | 66 | 1010.9 |
| 20260507132101 | 76 | 181 | 0.0 | 0.0 | 0.00 | 0.00 | 0.00 | 68 | 1010.9 |
| 20260507131559 | 75 | 192 | 0.0 | 0.0 | 0.00 | 0.00 | 0.00 | 68 | 1010.8 |
| 20260507131107 | 75 | 211 | 0.0 | 0.0 | 0.00 | 0.00 | 0.00 | 67 | 1011.2 |
| 20260507130601 | 75 | 192 | 0.0 | 0.0 | 0.00 | 0.00 | 0.00 | 68 | 1011.2 |
| 20260507130103 | 75 | 165 | 0.0 | 0.0 | 0.00 | 0.00 | 0.00 | 71 | 1011.3 |
| 20260507125600 | 74 | 213 | 0.0 | 0.0 | 0.00 | 0.00 | 0.00 | 72 | 1011.4 |
| 20260507125057 | 73 | 197 | 0.0 | 0.0 | 0.00 | 0.00 | 0.00 | 71 | 1011.5 |
| 20260507124558 | 73 | 219 | 0.0 | 0.0 | 0.00 | 0.00 | 0.00 | 71 | 1011.6 |
| 20260507124101 | 73 | 220 | 0.0 | 0.0 | 0.00 | 0.00 | 0.00 | 75 | 1011.8 |
| 20260507123602 | 73 | 219 | 0.0 | 0.0 | 0.00 | 0.00 | 0.00 | 72 | 1011.9 |
| 20260507123101 | 73 | 214 | 0.0 | 0.0 | 0.00 | 0.00 | 0.00 | 72 | 1012.0 |
| 20260507122559 | 72 | 243 | 0.0 | 0.0 | 0.00 | 0.00 | 0.00 | 74 | 1012.1 |
| 20260507121557 | 72 | 209 | 0.0 | 0.0 | 0.00 | 0.00 | 0.00 | 77 | 1012.0 |
| 20260507121104 | 72 | 209 | 0.0 | 0.0 | 0.00 | 0.00 | 0.00 | 76 | 1012.0 |
| 20260507120601 | 72 | 207 | 0.0 | 0.0 | 0.00 | 0.00 | 0.00 | 78 | 1011.9 |
| 20260507120058 | 72 | 207 | 0.0 | 0.0 | 0.00 | 0.00 | 0.00 | 78 | 1012.1 |
| 20260507115057 | 72 | 207 | 0.0 | 0.0 | 0.00 | 0.00 | 0.00 | 75 | 1011.9 |
| 20260507114557 | 72 | 206 | 0.0 | 0.0 | 0.00 | 0.00 | 0.00 | 76 | 1012.0 |
| 20260507114057 | 72 | 206 | 0.0 | 0.0 | 0.00 | 0.00 | 0.00 | 74 | 1011.9 |
| 20260507113557 | 72 | 211 | 0.0 | 0.0 | 0.00 | 0.00 | 0.00 | 77 | 1012.0 |
| 20260507113057 | 73 | 209 | 0.0 | 0.0 | 0.00 | 0.00 | 0.00 | 75 | 1011.9 |
| 20260507112558 | 73 | 209 | 0.0 | 0.0 | 0.00 | 0.00 | 0.00 | 75 | 1011.9 |
| 20260507112101 | 73 | 209 | 0.0 | 0.0 | 0.00 | 0.00 | 0.00 | 73 | 1011.9 |
| 20260507111600 | 73 | 228 | 0.0 | 0.0 | 0.00 | 0.00 | 0.00 | 74 | 1011.7 |
| 20260507110557 | 73 | 204 | 0.0 | 0.0 | 0.00 | 0.00 | 0.00 | 74 | 1011.3 |
| 20260507110059 | 73 | 206 | 0.0 | 0.0 | 0.00 | 0.00 | 0.00 | 73 | 1011.3 |
| 20260507105057 | 73 | 219 | 0.0 | 0.0 | 0.00 | 0.00 | 0.00 | 73 | 1011.2 |
| 20260507104557 | 73 | 205 | 0.0 | 0.0 | 0.00 | 0.00 | 0.00 | 74 | 1011.4 |
| 20260507104104 | 73 | 208 | 0.0 | 0.0 | 0.00 | 0.00 | 0.00 | 73 | 1011.1 |
| 20260507103601 | 72 | 197 | 0.0 | 0.0 | 0.00 | 0.00 | 0.00 | 73 | 1011.2 |
| 20260507103100 | 72 | 178 | 0.0 | 0.0 | 0.00 | 0.00 | 0.00 | 74 | 1011.2 |
| 20260507102557 | 72 | 236 | 0.0 | 0.0 | 0.00 | 0.00 | 0.00 | 74 | 1011.1 |
| 20260507102057 | 72 | 233 | 0.0 | 0.0 | 0.00 | 0.00 | 0.00 | 74 | 1011.1 |
| 20260507101056 | 72 | 197 | 0.0 | 0.0 | 0.00 | 0.00 | 0.00 | 74 | 1011.0 |
| 20260507100559 | 72 | 197 | 0.0 | 0.0 | 0.00 | 0.00 | 0.00 | 74 | 1011.2 |
| 20260507100058 | 72 | 232 | 0.0 | 0.0 | 0.00 | 0.00 | 0.00 | 73 | 1011.1 |
| 20260507095059 | 72 | 160 | 0.0 | 0.0 | 0.00 | 0.00 | 0.00 | 74 | 1011.1 |
| 20260507094558 | 72 | 197 | 0.0 | 0.0 | 0.00 | 0.00 | 0.00 | 74 | 1011.3 |
| 20260507094056 | 72 | 230 | 0.0 | 0.0 | 0.00 | 0.00 | 0.00 | 73 | 1011.4 |
| 20260507093556 | 72 | 206 | 0.0 | 0.0 | 0.00 | 0.00 | 0.00 | 73 | 1011.3 |
| 20260507093100 | 72 | 235 | 0.0 | 0.0 | 0.00 | 0.00 | 0.00 | 74 | 1011.3 |
| 20260507092558 | 73 | 344 | 0.0 | 0.0 | 0.00 | 0.00 | 0.00 | 74 | 1011.2 |
| 20260507092104 | 73 | 197 | 0.0 | 0.0 | 0.00 | 0.00 | 0.00 | 73 | 1011.3 |
| 20260507091556 | 73 | 197 | 0.0 | 0.0 | 0.00 | 0.00 | 0.00 | 73 | 1011.3 |
| 20260507091105 | 73 | 34 | 0.0 | 0.0 | 0.00 | 0.00 | 0.00 | 73 | 1011.3 |
| 20260507090602 | 73 | 187 | 0.0 | 0.0 | 0.00 | 0.00 | 0.00 | 73 | 1011.1 |
| 20260507090100 | 73 | 226 | 0.0 | 0.0 | 0.00 | 0.00 | 0.00 | 73 | 1011.1 |
| 20260507085559 | 73 | 178 | 0.0 | 0.0 | 0.00 | 0.00 | 0.00 | 72 | 1011.0 |
| 20260507085100 | 73 | 207 | 0.0 | 0.0 | 0.00 | 0.00 | 0.00 | 73 | 1010.9 |
| 20260507084600 | 73 | 222 | 0.0 | 0.0 | 0.00 | 0.00 | 0.00 | 73 | 1011.0 |
| 20260507084103 | 73 | 180 | 0.0 | 0.0 | 0.00 | 0.00 | 0.00 | 72 | 1011.0 |
| 20260507083556 | 73 | 212 | 0.0 | 0.0 | 0.00 | 0.00 | 0.00 | 72 | 1011.1 |
| 20260507083102 | 73 | 74 | 0.0 | 0.0 | 0.00 | 0.00 | 0.00 | 72 | 1011.2 |
| 20260507082555 | 73 | 175 | 0.0 | 0.0 | 0.00 | 0.00 | 0.00 | 72 | 1011.1 |
| 20260507082057 | 73 | 204 | 0.0 | 0.0 | 0.00 | 0.00 | 0.00 | 72 | 1011.0 |
| 20260507081600 | 73 | 203 | 0.0 | 0.0 | 0.00 | 0.00 | 0.00 | 73 | 1011.1 |
| 20260507081103 | 73 | 197 | 0.0 | 0.0 | 0.00 | 0.00 | 0.00 | 72 | 1011.0 |
| 20260507080559 | 73 | 220 | 0.0 | 0.0 | 0.00 | 0.00 | 0.00 | 72 | 1010.9 |
| 20260507075558 | 73 | 220 | 0.0 | 0.0 | 0.00 | 0.00 | 0.00 | 72 | 1011.2 |
| 20260507075055 | 73 | 187 | 0.0 | 0.0 | 0.00 | 0.00 | 0.00 | 74 | 1011.3 |
| 20260507074559 | 73 | 205 | 0.0 | 0.0 | 0.00 | 0.00 | 0.00 | 73 | 1011.3 |
| 20260507074101 | 72 | 192 | 0.0 | 0.0 | 0.00 | 0.00 | 0.00 | 74 | 1011.3 |
| 20260507073555 | 72 | 203 | 0.0 | 0.0 | 0.00 | 0.00 | 0.00 | 74 | 1011.6 |
| 20260507072558 | 72 | 223 | 0.0 | 0.0 | 0.00 | 0.00 | 0.00 | 76 | 1011.7 |
| 20260507071555 | 72 | 216 | 0.0 | 0.0 | 0.00 | 0.00 | 0.00 | 76 | 1012.0 |
| 20260507071106 | 71 | 214 | 0.0 | 0.0 | 0.00 | 0.00 | 0.00 | 78 | 1012.0 |
| 20260507070600 | 71 | 231 | 0.0 | 0.0 | 0.00 | 0.00 | 0.00 | 77 | 1012.0 |
| 20260507065559 | 70 | 197 | 0.0 | 0.0 | 0.00 | 0.00 | 0.00 | 81 | 1012.2 |